Home > Weather > Morden > Past weeks

Flag for Canada Past Weather in Morden, Manitoba, Canada — Yesterday and Last 2 Weeks

Now
61 °F

Cool.


Feels Like: 61 °F
Forecast: 54 / 76 °F
Wind: 5 mph from North

Location: Morden CDA CS

Current Time: Jul 27, 2016 at 2:59:13 AM

Latest Report: Jul 27, 2016 at 2:00 AM


Visibility: N/A

Pressure: 30.07 "Hg

Humidity: 86%

Dew Point: 57 °F

Location of MordenLocation

Past Weather in Morden — Graph

°F

Morden Temperature Yesterday

Maximum temperature yesterday: 76 °F (at 1:00 PM)
Minimum temperature yesterday: 63 °F (at 3:00 AM)
Average temperature yesterday: 70 °F

High & Low Weather Summary for the Past Weeks

 TemperatureHumidityPressure
High89 °F (Jul 20, 5:00 PM)98% (Jul 12, 1:00 AM)30.18 "Hg (Jul 12, 1:00 AM)
Low56 °F (Jul 16, 3:00 AM)36% (Jul 21, 4:00 PM)29.32 "Hg (Jul 12, 9:00 AM)
Average69 °F75%29.87 "Hg
* Reported Jul 12 1:00 AM — Jul 27 1:00 AM, Morden, Weather by CustomWeather, © 2016

Note: Actual official high and low records may vary slightly from our data, if they occured in-between our weather recording intervals... More about our weather records

Advertising

Morden Weather History for the Previous 24 Hours

Scroll right to see more
 ConditionsComfort  
Time TempWeatherWind HumidityBarometerVisibility
1:00 AM
Wed, Jul 27
62 °FCool.5 mph85%30.08 "HgN/A
12:00 AM62 °FCool.5 mph90%30.08 "HgN/A
11:00 PM
Tue, Jul 26
65 °FMild.5 mph82%30.06 "HgN/A
10:00 PM66 °FMild.6 mph77%30.04 "HgN/A
9:00 PM69 °FMild.6 mph72%30.03 "HgN/A
8:00 PM72 °FMild.6 mph68%30.02 "HgN/A
7:00 PM75 °FMild.6 mph63%30.02 "HgN/A
6:00 PM76 °FMild.5 mph59%30.03 "HgN/A
5:00 PM76 °FMild.7 mph59%30.01 "HgN/A
4:00 PM76 °FMild.9 mph56%30.01 "HgN/A
3:00 PM75 °FMild.8 mph61%30.01 "HgN/A
2:00 PM70 °FMild.7 mph74%30.03 "HgN/A
1:00 PM76 °FMild.9 mph65%30.01 "HgN/A
12:00 PM76 °FMild.7 mph70%30.00 "HgN/A
11:00 AM74 °FMild.7 mph73%30.00 "HgN/A
10:00 AM73 °FMild.6 mph79%29.99 "HgN/A
9:00 AM70 °FMild.6 mph83%29.98 "HgN/A
8:00 AM68 °FMild.6 mph85%29.97 "HgN/A
7:00 AM66 °FMild.5 mph84%29.96 "HgN/A
6:00 AM66 °FMild.6 mph83%29.96 "HgN/A
5:00 AM67 °FMild.6 mph76%29.95 "HgN/A
4:00 AM63 °FMild.2 mph91%29.95 "HgN/A
3:00 AM63 °FMild.3 mph94%29.94 "HgN/A
2:00 AM65 °FMild.2 mph92%29.94 "HgN/A
Weather by CustomWeather, © 2016

See weather overviewHow to use our weather pages